Weather History for Ketchikan, AK

Change the Weather History Date:

Friday, February 28, 2014

  Actual Average Record
Temperature  
Mean Temperature 38 °F -  
Max Temperature 46 °F 42 °F 56 °F (1968)
Min Temperature 30 °F 30 °F 7 °F (2011)
Degree Days  
Heating Degree Days 27    
Moisture  
Dew Point 20 °F    
Average Humidity 57    
Maximum Humidity 93    
Minimum Humidity 25    
Precipitation  
Precipitation 0.00 in - - ()
Sea Level Pressure  
Sea Level Pressure 29.93 in    
Wind  
Wind Speed 4 mph (WNW)    
Max Wind Speed 9 mph    
Max Gust Speed -    
Visibility 10 miles    
Events      
Averages and records for this station are not official NWS values.
T = Trace of Precipitation, MM = Missing Value Source: NWS Daily Summary

Daily Weather History Graph

Daily Weather History Graph

Search for Another Location

Airport:

Trip Planner

Search our weather history database for the weather conditions in past years. The results will help you decide how hot, cold, wet, or windy it might be!

Date:

Astronomy

Feb. 28, 2014 Rise Set
Actual Time 6:39 AM AKST 5:20 PM AKST
Civil Twilight 6:02 AM AKST 5:57 PM AKST
Nautical Twilight 5:20 AM AKST 6:39 PM AKST
Astronomical Twilight 4:37 AM AKST 7:22 PM AKST
Moon 5:59 AM AKST (2/28) 5:09 PM AKST (2/28)
Length of Visible Light 11h 54m
Length of Day
10h 41m
Waning Crescent, 0% of the Moon is Illuminated
Feb 28
Waning Crescent
Feb 28
New
Mar 8
First Quarter
Mar 16
Full
Mar 23
Last Quarter

Hourly Weather History & Observations

Time (AKST) Temp. Windchill Dew Point Humidity Pressure Visibility Wind Dir Wind Speed Gust Speed Precip Events Conditions
12:53 AM 35.1 °F 31.0 °F 28.9 °F 78% 29.92 in 10.0 mi WNW 4.6 mph - N/A   Clear
1:53 AM 34.0 °F 28.0 °F 28.9 °F 82% 29.92 in 10.0 mi NW 6.9 mph - N/A   Clear
3:53 AM 32.0 °F 26.4 °F 28.9 °F 88% 29.92 in 10.0 mi West 5.8 mph - N/A   Clear
4:53 AM 32.0 °F 27.5 °F 28.9 °F 88% 29.93 in 10.0 mi West 4.6 mph - N/A   Clear
5:53 AM 32.0 °F 28.7 °F 28.9 °F 88% 29.92 in 10.0 mi WNW 3.5 mph - N/A   Clear
6:05 AM 30.2 °F - 28.4 °F 93% 29.92 in 10.0 mi Calm Calm - N/A   Clear
6:53 AM 30.0 °F 26.5 °F 27.0 °F 88% 29.93 in 10.0 mi West 3.5 mph - N/A   Clear
7:53 AM 34.0 °F 31.0 °F 28.9 °F 82% 29.93 in 10.0 mi WNW 3.5 mph - N/A   Clear
8:53 AM 37.0 °F 34.5 °F 30.9 °F 79% 29.93 in 10.0 mi NW 3.5 mph - N/A   Clear
9:53 AM 39.0 °F - 30.9 °F 73% 29.94 in 10.0 mi Calm Calm - N/A   Clear
10:53 AM 42.1 °F - 30.9 °F 65% 29.94 in 10.0 mi Calm Calm - N/A   Clear
11:53 AM 44.1 °F 42.5 °F 28.9 °F 55% 29.93 in 10.0 mi North 3.5 mph - N/A   Clear
12:53 PM 46.0 °F 41.4 °F 18.0 °F 33% 29.92 in 10.0 mi ENE 9.2 mph - N/A   Clear
1:53 PM 44.1 °F 39.5 °F 19.0 °F 37% 29.91 in 10.0 mi ESE 8.1 mph - N/A   Clear
2:53 PM 44.1 °F 40.1 °F 16.0 °F 32% 29.91 in 10.0 mi SE 6.9 mph - N/A   Clear
3:53 PM 43.0 °F 38.8 °F 12.9 °F 30% 29.91 in 10.0 mi ESE 6.9 mph - N/A   Clear
4:53 PM 41.0 °F 36.4 °F 12.9 °F 32% 29.91 in 10.0 mi NE 6.9 mph - N/A   Clear
5:53 PM 37.9 °F - 10.0 °F 32% 29.92 in 10.0 mi Calm Calm - N/A   Clear
6:53 PM 36.0 °F - 7.0 °F 30% 29.92 in 10.0 mi Calm Calm - N/A   Clear
7:53 PM 30.9 °F 26.2 °F 10.0 °F 42% 29.93 in 10.0 mi SSW 4.6 mph - N/A   Clear
8:53 PM 30.9 °F 27.5 °F 8.1 °F 38% 29.94 in 10.0 mi WSW 3.5 mph - N/A   Clear
9:53 PM 30.9 °F 27.5 °F 8.1 °F 38% 29.94 in 10.0 mi Variable 3.5 mph - N/A   Clear
10:53 PM 30.9 °F - 12.0 °F 46% 29.94 in 10.0 mi Calm Calm - N/A   Clear
11:53 PM 35.1 °F - 1.9 °F 25% 29.94 in 10.0 mi Calm Calm - N/A   Clear